Linden, NJ

4:55 AM EDT on July 25, 2017 (GMT -0400)
Linden

Weather History for KLDJ - February, 2013

Change the Weather History Date:

Thursday, February 14, 2013

  Actual Average (KEWR) Record (KEWR)
Temperature  
Mean Temperature 40 °F -  
Max Temperature 47 °F 41 °F 65 °F (1946)
Min Temperature 33 °F 25 °F 0 °F (1979)
Degree Days  
Heating Degree Days 25    
Moisture  
Dew Point 30 °F    
Average Humidity 71    
Maximum Humidity 93    
Minimum Humidity 39    
Precipitation  
Precipitation 0.00 in - - ()
Sea Level Pressure  
Sea Level Pressure 29.91 in    
Wind  
Wind Speed 5 mph (WNW)    
Max Wind Speed 9 mph    
Max Gust Speed -    
Visibility 9 miles    
Events Rain    
Averages and records for this station are not official NWS values.
T = Trace of Precipitation, MM = Missing Value Source: NWS Daily Summary

Daily Weather History Graph

Daily Weather History Graph

Search for Another Location

Airport or City:

Trip Planner

Search our weather history database for the weather conditions in past years. The results will help you decide how hot, cold, wet, or windy it might be!

Date:

Astronomy

Feb. 14, 2013 Rise Set
Actual Time 6:51 AM EST 5:31 PM EST
Civil Twilight 6:23 AM EST 5:59 PM EST
Nautical Twilight 5:51 AM EST 6:31 PM EST
Astronomical Twilight 5:19 AM EST 7:02 PM EST
Moon 8:50 AM EST (2/14) 10:33 PM EST (2/14)
Length of Visible Light 11h 35m
Length of Day
10h 39m
Waxing Crescent, 21% of the Moon is Illuminated
Feb 14
Waxing Crescent
Feb 17
First Quarter
Feb 25
Full
Mar 4
Last Quarter
Mar 11
New

Hourly Weather History & Observations

Time (EST) Temp. Windchill Dew Point Humidity Pressure Visibility Wind Dir Wind Speed Gust Speed Precip Events Conditions
12:15 AM 36.5 °F 30.3 °F 34.0 °F 91% 29.72 in 5.0 mi North 8.1 mph - N/A   Light Drizzle
12:35 AM 36.1 °F 31.4 °F 33.8 °F 91% 29.72 in 5.0 mi North 5.8 mph - N/A Rain Light Rain
12:55 AM 36.0 °F 32.1 °F 33.8 °F 92% 29.73 in 5.0 mi North 4.6 mph - N/A Rain Light Rain
1:15 AM 36.0 °F 32.1 °F 33.8 °F 92% 29.73 in 5.0 mi North 4.6 mph - N/A Rain Light Rain
1:35 AM 36.0 °F 32.1 °F 33.8 °F 92% 29.74 in 7.0 mi North 4.6 mph - N/A   Light Drizzle
1:55 AM 35.8 °F 31.9 °F 33.4 °F 91% 29.74 in 7.0 mi North 4.6 mph - N/A   Overcast
2:15 AM 36.0 °F 32.1 °F 33.3 °F 90% 29.75 in 7.0 mi North 4.6 mph - N/A   Overcast
2:35 AM 36.0 °F 32.1 °F 33.3 °F 90% 29.78 in 7.0 mi NW 4.6 mph - N/A   Overcast
2:55 AM 36.0 °F 31.1 °F 33.4 °F 91% 29.79 in 7.0 mi NW 5.8 mph - N/A   Overcast
3:15 AM 35.8 °F 31.9 °F 33.4 °F 91% 29.79 in 7.0 mi NW 4.6 mph - N/A   Overcast
3:35 AM 36.0 °F 33.3 °F 33.8 °F 92% 29.80 in 7.0 mi WNW 3.5 mph - N/A   Overcast
3:55 AM 36.1 °F - 33.6 °F 91% 29.80 in 7.0 mi Calm Calm - N/A   Overcast
4:15 AM 36.0 °F 33.3 °F 33.3 °F 90% 29.80 in 7.0 mi WNW 3.5 mph - N/A   Overcast
4:55 AM 35.1 °F 30.1 °F 33.1 °F 92% 29.82 in 7.0 mi West 5.8 mph - N/A   Mostly Cloudy
5:15 AM 34.7 °F 29.6 °F 32.5 °F 92% 29.83 in 7.0 mi WNW 5.8 mph - N/A   Scattered Clouds
5:35 AM 34.2 °F - 32.2 °F 92% 29.82 in 7.0 mi Calm Calm - N/A   Clear
5:55 AM 34.7 °F 31.8 °F 32.5 °F 92% 29.84 in 7.0 mi West 3.5 mph - N/A   Clear
6:15 AM 33.8 °F 30.8 °F 32.0 °F 93% 29.85 in 7.0 mi WNW 3.5 mph - N/A   Clear
6:35 AM 34.9 °F - 32.9 °F 92% 29.86 in 7.0 mi Calm Calm - N/A   Clear
6:55 AM 34.9 °F 32.0 °F 32.2 °F 90% 29.88 in 7.0 mi WNW 3.5 mph - N/A   Clear
7:15 AM 34.5 °F 31.6 °F 32.0 °F 90% 29.89 in 7.0 mi West 3.5 mph - N/A   Clear
7:35 AM 34.9 °F 29.0 °F 32.0 °F 89% 29.91 in 7.0 mi WNW 6.9 mph - N/A   Clear
7:55 AM 35.1 °F 30.1 °F 32.2 °F 89% 29.92 in 7.0 mi WNW 5.8 mph - N/A   Clear
8:15 AM 36.0 °F 31.1 °F 32.5 °F 87% 29.93 in 7.0 mi WNW 5.8 mph - N/A   Clear
8:35 AM 36.9 °F 31.4 °F 33.3 °F 87% 29.93 in 7.0 mi WNW 6.9 mph - N/A   Clear
8:55 AM 37.8 °F 32.5 °F 33.8 °F 86% 29.94 in 7.0 mi WNW 6.9 mph - N/A   Clear
9:15 AM 39.0 °F 34.0 °F 33.6 °F 81% 29.94 in 10.0 mi NW 6.9 mph - N/A   Clear
9:35 AM 40.1 °F 35.3 °F 32.7 °F 75% 29.94 in 10.0 mi NNW 6.9 mph - N/A   Clear
9:55 AM 40.8 °F 35.0 °F 31.5 °F 69% 29.95 in 10.0 mi NW 9.2 mph - N/A   Clear
10:15 AM 41.0 °F 35.2 °F 30.9 °F 67% 29.96 in 10.0 mi NW 9.2 mph - N/A   Clear
10:35 AM 41.9 °F 36.9 °F 30.7 °F 65% 29.96 in 10.0 mi WNW 8.1 mph - N/A   Clear
10:55 AM 42.8 °F 39.3 °F 29.7 °F 60% 29.96 in 10.0 mi NW 5.8 mph - N/A   Clear
11:15 AM 43.7 °F 40.3 °F 28.0 °F 54% 29.96 in 10.0 mi North 5.8 mph - N/A   Clear
11:35 AM 43.9 °F 41.3 °F 27.3 °F 52% 29.96 in 10.0 mi NNE 4.6 mph - N/A   Clear
11:55 AM 44.6 °F 43.1 °F 26.8 °F 50% 29.96 in 10.0 mi ENE 3.5 mph - N/A   Clear
12:15 PM 44.8 °F 43.3 °F 25.9 °F 48% 29.95 in 10.0 mi NW 3.5 mph - N/A   Clear
12:35 PM 44.4 °F - 25.0 °F 46% 29.95 in 10.0 mi Calm Calm - N/A   Clear
12:55 PM 45.5 °F - 25.7 °F 46% 29.94 in 10.0 mi Calm Calm - N/A   Clear
1:15 PM 45.7 °F 44.4 °F 23.5 °F 42% 29.94 in 10.0 mi WNW 3.5 mph - N/A   Clear
1:35 PM 46.2 °F 45.0 °F 25.5 °F 44% 29.94 in 10.0 mi NW 3.5 mph - N/A   Clear
1:55 PM 46.4 °F - 23.0 °F 40% 29.94 in 10.0 mi Calm Calm - N/A   Clear
2:15 PM 47.3 °F - 23.5 °F 39% 29.94 in 10.0 mi West 4.6 mph - N/A   Clear
2:35 PM 47.3 °F - 24.6 °F 41% 29.94 in 10.0 mi WSW 5.8 mph - N/A   Clear
3:15 PM 47.3 °F - 26.6 °F 45% 29.95 in 10.0 mi WSW 9.2 mph - N/A   Clear
3:35 PM 46.8 °F - 27.7 °F 47% 29.95 in 10.0 mi West 6.9 mph - N/A   Clear
3:55 PM 47.1 °F - 26.2 °F 44% 29.95 in 10.0 mi WSW 8.1 mph - N/A   Clear
4:15 PM 46.8 °F - 25.9 °F 44% 29.96 in 10.0 mi West 8.1 mph - N/A   Clear
4:35 PM 46.6 °F - 25.2 °F 43% 29.96 in 10.0 mi WSW 6.9 mph - N/A   Clear
4:55 PM 46.4 °F 44.3 °F 23.9 °F 41% 29.97 in 10.0 mi WSW 4.6 mph - N/A   Clear
5:15 PM 45.9 °F 42.9 °F 23.9 °F 42% 29.97 in 10.0 mi WSW 5.8 mph - N/A   Clear
5:35 PM 45.5 °F 43.2 °F 24.8 °F 44% 29.97 in 10.0 mi WSW 4.6 mph - N/A   Clear
6:15 PM 44.6 °F - 26.1 °F 48% 29.97 in 10.0 mi Calm Calm - N/A   Clear
6:35 PM 43.0 °F 39.5 °F 32.0 °F 65% 29.98 in 10.0 mi SE 5.8 mph - N/A   Clear
6:55 PM 42.1 °F 40.2 °F 32.2 °F 68% 29.99 in 10.0 mi SSE 3.5 mph - N/A   Clear
7:15 PM 41.0 °F 39.0 °F 32.4 °F 71% 29.98 in 10.0 mi SSE 3.5 mph - N/A   Clear
7:35 PM 40.3 °F - 32.2 °F 73% 29.99 in 10.0 mi Calm Calm - N/A   Clear
7:55 PM 39.9 °F - 32.2 °F 74% 29.99 in 10.0 mi Calm Calm - N/A   Clear
8:15 PM 39.4 °F - 32.0 °F 75% 29.99 in 10.0 mi Calm Calm - N/A   Clear
8:35 PM 39.4 °F - 32.0 °F 75% 29.99 in 10.0 mi Calm Calm - N/A   Clear
8:55 PM 39.2 °F - 31.1 °F 73% 30.00 in 10.0 mi Calm Calm - N/A   Clear
9:15 PM 39.2 °F - 30.2 °F 70% 30.00 in 10.0 mi Calm Calm - N/A   Clear
9:35 PM 39.2 °F - 30.6 °F 71% 30.00 in 10.0 mi Calm Calm - N/A   Clear
9:55 PM 38.8 °F - 30.7 °F 73% 30.01 in 10.0 mi Calm Calm - N/A   Clear
10:15 PM 38.5 °F 36.1 °F 30.9 °F 74% 30.01 in 10.0 mi SSW 3.5 mph - N/A   Clear
10:35 PM 39.0 °F 36.8 °F 31.1 °F 73% 30.01 in 10.0 mi WSW 3.5 mph - N/A   Clear
10:55 PM 39.6 °F 37.4 °F 30.9 °F 71% 30.00 in 10.0 mi WSW 3.5 mph - N/A   Scattered Clouds
11:15 PM 39.4 °F 37.2 °F 31.1 °F 72% 30.01 in 10.0 mi WSW 3.5 mph - N/A   Mostly Cloudy
11:35 PM 39.4 °F 36.1 °F 30.9 °F 72% 30.00 in 10.0 mi West 4.6 mph - N/A   Scattered Clouds
11:55 PM 39.4 °F - 30.7 °F 71% 30.01 in 10.0 mi Calm Calm - N/A   Clear